STARLINK-32555, 61918

Orbit data source: Space-Track

STARLINK-32555, 61918 is a payload satellite owned by SpaceX/Seattle (US) in LEO that was launched on Mon, 11 Nov 2024 UTC via an FALCON 9 launch vehicle from the Air Force Eastern Test Range (AFETR). Payload-class satellites include a variety of spacecraft equipped with specific instruments for various scientific and technological missions. These include communications satellites like Starlink; space stations such as the ISS; scientific satellites like the Hubble; Earth observation satellites from companies like Planet Labs, Umbra, and HawkEye 360; GPS; miniature CubeSats for education and research; and military/defense satellites.

Loading next visibility...
Identifier
61918, 2024-207G
Orbit
LEO
Country
Flag of USUS
Related business
Manufacturer
SpaceX/Seattle
Mission
Operational Commercial Communications
Bus & Motor
STARLINK V2M, Unknown motor
Mass
730 kg wet, ~700 kg dry
Launch date (UTC)
2024-11-11 (2 years ago)
Launch vehicle
FALCON 9
Launch site
Air Force Eastern Test Range (AFETR)
Object type
Payload
Rocket body
Debris
Shape & HBR
Box + 2 Pan, 17.7 m
Radar Cross Section
33.884 m², Large (>1 m²)

Expand to show TLE details & history
Last TLE update: 23 hours ago

TLE from 23 hours ago
0 STARLINK-32555
1 61918U 24207G   26206.43563518  .00021207  00000-0  77775-3 0  9999
2 61918  43.0009 227.7074 0001463 268.6893  91.3791 15.27588641 95740
Epoch: 2026-07-25T10:27Z
TLE epoch observation values (Epoch: 2026-07-25T10:27:18.879Z)
Latitude
-0.00003°
Longitude
127.73076°
Altitude
482.823 km
Speed
7.626 km/s
True Right ascension
15h 10m 49s
True Declination
0° 00' 00"
Sunlit
Object was in daylight at epoch
Visualization orbit readout
Latitude
Unknown
Longitude
Unknown
Altitude
Unknown
Speed
Unknown
Apparent Right ascension
Unknown
Apparent Declination
Unknown
Sunlit
N/A
Visualization observer readout
Local Sidereal Time
22:17:13
Azimuth
Unknown
Elevation
Unknown
Doppler factor
Unknown
Orbital elements
Apogee altitude
485.972 km
Perigee altitude
483.964 km
Semi-major axis
6,863.105 km
Eccentricity
0.00015
Inclination
43.0009°
RAAN
227.7074°
Arg. of periapsis
268.6893°
True anomaly
91.39586°
Mean anomaly
91.3791°
Eccentric anomaly
91.38748°
Mean motion
3.81735 °/min
Orbital period
94.31 mins
BSTAR
0.00077775
Loading maneuver chart data...
Computing Atmospheric mass density...
Loading historical data...
Loading historical data...
Loading historical data...
Loading historical data...
Loading historical data...
Loading historical data...
Loading historical data...

Documentation

Showing up to 5 results
|